EZY47RE EGPH-EGGW

Flight info

Callsign EZY47RE
Flight time 0h 54m
Altitude 33000
Route GOSAM P600 FENIK L612 ELBUS UL612 LISTO
Aircraft A320/M-SDE3FGHIRWY/LB1

Departure

Time 2026-05-05 14:13
Airport Edinburgh Airport (EGPH)

Arrival

Time 2026-05-05 15:07
Airport London Luton Airport (EGGW)
Time Latitude Longitude Altitude Speed Heading
2026-05-05 13:58 55.94879 -3.36545 107 ft 0 kts 149°
2026-05-05 14:03 55.94893 -3.36561 105 ft 2 kts 149°
2026-05-05 14:04 55.94907 -3.36576 105 ft 2 kts 148°
2026-05-05 14:04 55.94921 -3.36591 104 ft 2 kts 149°
2026-05-05 14:04 55.94936 -3.36604 106 ft 2 kts 217°
2026-05-05 14:04 55.94949 -3.36586 104 ft 2 kts 228°
2026-05-05 14:05 55.94959 -3.36563 106 ft 2 kts 237°
2026-05-05 14:05 55.94962 -3.36553 106 ft 0 kts 237°
2026-05-05 14:06 55.94961 -3.36556 106 ft 2 kts 237°
2026-05-05 14:06 55.94943 -3.36606 105 ft 8 kts 238°
2026-05-05 14:06 55.94906 -3.36718 106 ft 12 kts 239°
2026-05-05 14:07 55.94925 -3.36839 105 ft 11 kts 308°
2026-05-05 14:07 55.94903 -3.36964 104 ft 11 kts 237°
2026-05-05 14:07 55.94864 -3.37075 105 ft 10 kts 238°
2026-05-05 14:07 55.94828 -3.37181 105 ft 12 kts 240°
2026-05-05 14:08 55.94778 -3.37333 107 ft 13 kts 239°
2026-05-05 14:08 55.94735 -3.37461 110 ft 14 kts 239°
2026-05-05 14:08 55.94670 -3.37655 112 ft 21 kts 239°
2026-05-05 14:08 55.94597 -3.37864 112 ft 20 kts 238°
2026-05-05 14:09 55.94529 -3.38065 112 ft 19 kts 239°
2026-05-05 14:09 55.94462 -3.38265 112 ft 17 kts 239°
2026-05-05 14:09 55.94406 -3.38431 114 ft 15 kts 238°
2026-05-05 14:09 55.94358 -3.38569 115 ft 10 kts 238°
2026-05-05 14:10 55.94328 -3.38657 118 ft 7 kts 239°
2026-05-05 14:10 55.94295 -3.38758 119 ft 12 kts 240°
2026-05-05 14:10 55.94284 -3.38857 118 ft 5 kts 303°
2026-05-05 14:10 55.94307 -3.38886 119 ft 6 kts 330°
2026-05-05 14:11 55.94322 -3.38901 118 ft 0 kts 330°
2026-05-05 14:11 55.94330 -3.38910 119 ft 6 kts 330°
2026-05-05 14:11 55.94399 -3.38979 115 ft 12 kts 339°
2026-05-05 14:11 55.94438 -3.38900 115 ft 8 kts 58°
2026-05-05 14:12 55.94439 -3.38897 115 ft 0 kts 59°
2026-05-05 14:12 55.94477 -3.38783 116 ft 38 kts 59°
2026-05-05 14:12 55.94735 -3.38023 113 ft 104 kts 59°
2026-05-05 14:12 55.95210 -3.36609 158 ft 152 kts 62°
2026-05-05 14:13 55.95747 -3.35015 922 ft 148 kts 61°
2026-05-05 14:13 55.96424 -3.33575 1580 ft 161 kts 45°
2026-05-05 14:13 55.97319 -3.32143 1901 ft 185 kts 44°
2026-05-05 14:13 55.98346 -3.30480 2317 ft 212 kts 44°
2026-05-05 14:14 55.99544 -3.28704 2871 ft 235 kts 31°
2026-05-05 14:14 56.01160 -3.28107 3756 ft 248 kts 355°
2026-05-05 14:14 56.02743 -3.29412 4728 ft 260 kts 319°
2026-05-05 14:14 56.03642 -3.32178 5830 ft 264 kts 285°
2026-05-05 14:15 56.03624 -3.35379 7062 ft 258 kts 262°
2026-05-05 14:15 56.03159 -3.38504 7988 ft 265 kts 255°
2026-05-05 14:15 56.02537 -3.41619 8892 ft 269 kts 253°
2026-05-05 14:15 56.01893 -3.44763 9828 ft 271 kts 254°
2026-05-05 14:16 56.01289 -3.48018 10446 ft 285 kts 255°
2026-05-05 14:16 56.00704 -3.51532 10818 ft 304 kts 257°
2026-05-05 14:16 56.00137 -3.55232 11511 ft 310 kts 258°
2026-05-05 14:16 55.99590 -3.58973 12369 ft 313 kts 258°
2026-05-05 14:17 55.99046 -3.62777 13133 ft 318 kts 258°
2026-05-05 14:17 55.98499 -3.66630 13892 ft 322 kts 258°
2026-05-05 14:17 55.97947 -3.70528 14587 ft 325 kts 258°
2026-05-05 14:17 55.97388 -3.74451 15285 ft 328 kts 257°
2026-05-05 14:18 55.96824 -3.78371 15979 ft 330 kts 257°
2026-05-05 14:18 55.96245 -3.82368 16656 ft 334 kts 257°
2026-05-05 14:18 55.95658 -3.86414 17316 ft 338 kts 257°
2026-05-05 14:18 55.95064 -3.90496 18015 ft 341 kts 257°
2026-05-05 14:19 55.94465 -3.94615 18624 ft 344 kts 257°
2026-05-05 14:19 55.93718 -3.98693 19180 ft 350 kts 246°
2026-05-05 14:19 55.92383 -4.02372 19701 ft 358 kts 231°
2026-05-05 14:19 55.90497 -4.05334 20244 ft 366 kts 218°
2026-05-05 14:20 55.88413 -4.07967 20820 ft 369 kts 218°
2026-05-05 14:20 55.86306 -4.10616 21373 ft 372 kts 217°
2026-05-05 14:20 55.83971 -4.12656 21902 ft 381 kts 199°
2026-05-05 14:20 55.81323 -4.13283 22413 ft 390 kts 181°
2026-05-05 14:21 55.78596 -4.12892 22933 ft 395 kts 178°
2026-05-05 14:21 55.75856 -4.12409 23472 ft 397 kts 177°
2026-05-05 14:21 55.73096 -4.11891 23934 ft 400 kts 176°
2026-05-05 14:21 55.70299 -4.11357 24329 ft 401 kts 176°
2026-05-05 14:22 55.67555 -4.10841 24449 ft 399 kts 176°
2026-05-05 14:22 55.64807 -4.10340 24535 ft 391 kts 177°
2026-05-05 14:22 55.62110 -4.09864 24649 ft 387 kts 177°
2026-05-05 14:22 55.59464 -4.09402 24763 ft 387 kts 177°
2026-05-05 14:23 55.56744 -4.08935 24899 ft 399 kts 177°
2026-05-05 14:23 55.53953 -4.08453 25178 ft 405 kts 177°
2026-05-05 14:23 55.51148 -4.07759 25564 ft 410 kts 170°
2026-05-05 14:23 55.48427 -4.06301 25957 ft 416 kts 161°
2026-05-05 14:24 55.45847 -4.04089 26357 ft 420 kts 153°
2026-05-05 14:24 55.43248 -4.01548 26786 ft 422 kts 153°
2026-05-05 14:24 55.40673 -3.99043 27207 ft 424 kts 153°
2026-05-05 14:24 55.38085 -3.96540 27603 ft 426 kts 153°
2026-05-05 14:25 55.35474 -3.94026 27995 ft 428 kts 154°
2026-05-05 14:25 55.32855 -3.91509 28373 ft 431 kts 154°
2026-05-05 14:25 55.30218 -3.88977 28746 ft 433 kts 154°
2026-05-05 14:25 55.27566 -3.86432 29116 ft 435 kts 154°
2026-05-05 14:26 55.24901 -3.83875 29499 ft 438 kts 154°
2026-05-05 14:26 55.22224 -3.81307 29873 ft 440 kts 154°
2026-05-05 14:26 55.19532 -3.78726 30198 ft 442 kts 154°
2026-05-05 14:26 55.16831 -3.76144 30512 ft 443 kts 154°
2026-05-05 14:27 55.14136 -3.73576 30803 ft 445 kts 154°
2026-05-05 14:27 55.11410 -3.70980 31089 ft 447 kts 154°
2026-05-05 14:27 55.08637 -3.68338 31379 ft 449 kts 154°
2026-05-05 14:27 55.05891 -3.65724 31692 ft 449 kts 154°
2026-05-05 14:28 55.03175 -3.63148 32102 ft 448 kts 154°
2026-05-05 14:28 55.00492 -3.60613 32479 ft 447 kts 155°
2026-05-05 14:28 54.97757 -3.58031 32865 ft 446 kts 155°
2026-05-05 14:28 54.95026 -3.55459 32995 ft 444 kts 155°
2026-05-05 14:29 54.92322 -3.52906 33035 ft 430 kts 155°
2026-05-05 14:29 54.89716 -3.50444 33034 ft 424 kts 155°
2026-05-05 14:29 54.84555 -3.45589 33038 ft 421 kts 155°
2026-05-05 14:30 54.79402 -3.40782 33038 ft 420 kts 155°
2026-05-05 14:30 54.74253 -3.35992 33038 ft 420 kts 156°
2026-05-05 14:31 54.69038 -3.31438 33021 ft 418 kts 160°
2026-05-05 14:31 54.63709 -3.27478 33027 ft 416 kts 161°
2026-05-05 14:32 54.58351 -3.23645 33029 ft 416 kts 161°
2026-05-05 14:32 54.53071 -3.19774 33022 ft 417 kts 161°
2026-05-05 14:33 54.47757 -3.15797 33019 ft 416 kts 160°
2026-05-05 14:33 54.42433 -3.11810 33010 ft 416 kts 160°
2026-05-05 14:34 54.37116 -3.07878 33014 ft 416 kts 160°
2026-05-05 14:34 54.31807 -3.03957 33018 ft 416 kts 160°
2026-05-05 14:35 54.27348 -3.00670 33021 ft 416 kts 160°
2026-05-05 14:35 54.22047 -2.96771 33018 ft 415 kts 160°
2026-05-05 14:36 54.16757 -2.92890 33001 ft 415 kts 159°
2026-05-05 14:36 54.11437 -2.89005 33019 ft 415 kts 160°
2026-05-05 14:37 54.06158 -2.85161 33012 ft 415 kts 160°
2026-05-05 14:37 54.00868 -2.81322 33024 ft 415 kts 160°
2026-05-05 14:38 53.95548 -2.77468 33022 ft 415 kts 159°
2026-05-05 14:38 53.90233 -2.73625 33026 ft 415 kts 159°
2026-05-05 14:39 53.84940 -2.69810 33014 ft 415 kts 159°
2026-05-05 14:39 53.79620 -2.65987 33012 ft 415 kts 159°
2026-05-05 14:40 53.74306 -2.62182 33021 ft 415 kts 159°
2026-05-05 14:40 53.68981 -2.58372 33007 ft 415 kts 159°
2026-05-05 14:41 53.63673 -2.54590 33018 ft 415 kts 158°
2026-05-05 14:41 53.58353 -2.50808 33021 ft 414 kts 159°
2026-05-05 14:42 53.53017 -2.47028 32997 ft 410 kts 158°
2026-05-05 14:42 53.47807 -2.43322 33007 ft 405 kts 159°
2026-05-05 14:43 53.42595 -2.39652 33013 ft 410 kts 158°
2026-05-05 14:43 53.37298 -2.35945 33006 ft 413 kts 159°
2026-05-05 14:44 53.31989 -2.32231 33016 ft 414 kts 158°
2026-05-05 14:44 53.26880 -2.27855 33013 ft 416 kts 141°
2026-05-05 14:45 53.22093 -2.22671 32996 ft 410 kts 168°
2026-05-05 14:45 53.16542 -2.20735 32996 ft 411 kts 163°
2026-05-05 14:46 53.13867 -2.18885 32995 ft 412 kts 151°
2026-05-05 14:46 53.11437 -2.16489 32992 ft 412 kts 150°
2026-05-05 14:46 53.06183 -2.12300 33015 ft 427 kts 155°
2026-05-05 14:47 53.00632 -2.08880 33006 ft 419 kts 164°
2026-05-05 14:47 52.98018 -2.06859 33009 ft 415 kts 142°
2026-05-05 14:47 52.95861 -2.03694 33013 ft 414 kts 136°
2026-05-05 14:48 52.91744 -1.96996 33011 ft 417 kts 136°
2026-05-05 14:48 52.87529 -1.90423 32738 ft 409 kts 137°
2026-05-05 14:49 52.85438 -1.87283 32311 ft 402 kts 143°
2026-05-05 14:49 52.83118 -1.84772 31884 ft 397 kts 150°
2026-05-05 14:49 52.80758 -1.82457 31398 ft 393 kts 150°
2026-05-05 14:49 52.78447 -1.80036 30862 ft 393 kts 146°
2026-05-05 14:50 52.76214 -1.77447 30318 ft 392 kts 146°
2026-05-05 14:50 52.74005 -1.74820 29722 ft 391 kts 146°
2026-05-05 14:50 52.71815 -1.72150 29113 ft 390 kts 146°
2026-05-05 14:50 52.69634 -1.69480 28481 ft 386 kts 146°
2026-05-05 14:51 52.67508 -1.66873 27887 ft 378 kts 146°
2026-05-05 14:51 52.65435 -1.64329 27298 ft 373 kts 146°
2026-05-05 14:51 52.63356 -1.61777 26728 ft 373 kts 146°
2026-05-05 14:51 52.61277 -1.59225 26156 ft 373 kts 146°
2026-05-05 14:52 52.59194 -1.56671 25617 ft 373 kts 146°
2026-05-05 14:52 52.57119 -1.54125 25055 ft 372 kts 146°
2026-05-05 14:52 52.55045 -1.51580 24527 ft 372 kts 146°
2026-05-05 14:52 52.52970 -1.49035 24000 ft 372 kts 146°
2026-05-05 14:53 52.50902 -1.46493 23459 ft 371 kts 146°
2026-05-05 14:53 52.48837 -1.43945 22844 ft 371 kts 146°
2026-05-05 14:53 52.46794 -1.41433 22250 ft 371 kts 146°
2026-05-05 14:53 52.44728 -1.38908 21660 ft 371 kts 146°
2026-05-05 14:54 52.42654 -1.36386 21077 ft 371 kts 146°
2026-05-05 14:54 52.40581 -1.33881 20500 ft 371 kts 146°
2026-05-05 14:54 52.38497 -1.31378 19950 ft 371 kts 146°
2026-05-05 14:54 52.36417 -1.28893 19399 ft 371 kts 146°
2026-05-05 14:55 52.34332 -1.26418 18878 ft 370 kts 146°
2026-05-05 14:55 52.32236 -1.23945 18353 ft 370 kts 146°
2026-05-05 14:55 52.30142 -1.21487 17777 ft 371 kts 146°
2026-05-05 14:55 52.28021 -1.19001 17171 ft 370 kts 146°
2026-05-05 14:56 52.25922 -1.16567 16590 ft 369 kts 146°
2026-05-05 14:56 52.23857 -1.14189 16007 ft 356 kts 146°
2026-05-05 14:56 52.21878 -1.11884 15448 ft 344 kts 146°
2026-05-05 14:56 52.19960 -1.09657 14910 ft 333 kts 146°
2026-05-05 14:57 52.18101 -1.07479 14358 ft 325 kts 146°
2026-05-05 14:57 52.16293 -1.05358 13844 ft 318 kts 146°
2026-05-05 14:57 52.14513 -1.03273 13253 ft 311 kts 146°
2026-05-05 14:57 52.12772 -1.01240 12672 ft 305 kts 146°
2026-05-05 14:58 52.11052 -0.99263 12097 ft 300 kts 146°
2026-05-05 14:58 52.09354 -0.97334 11535 ft 295 kts 146°
2026-05-05 14:58 52.07756 -0.95285 10974 ft 291 kts 134°
2026-05-05 14:58 52.06402 -0.92833 10263 ft 292 kts 131°
2026-05-05 14:59 52.05065 -0.90345 9610 ft 291 kts 130°
2026-05-05 14:59 52.03745 -0.87865 8943 ft 289 kts 130°
2026-05-05 14:59 52.02440 -0.85411 8292 ft 285 kts 130°
2026-05-05 14:59 52.01149 -0.82993 7645 ft 282 kts 130°
2026-05-05 15:00 51.99803 -0.80719 7012 ft 279 kts 143°
2026-05-05 15:00 51.98681 -0.79720 6608 ft 278 kts 156°
2026-05-05 15:00 51.96248 -0.78334 5718 ft 275 kts 161°
2026-05-05 15:00 51.94474 -0.77407 5428 ft 259 kts 161°
2026-05-05 15:01 51.92805 -0.76557 5201 ft 243 kts 161°
2026-05-05 15:01 51.91246 -0.75765 4975 ft 234 kts 159°
2026-05-05 15:01 51.89782 -0.74625 4743 ft 230 kts 147°
2026-05-05 15:01 51.88402 -0.73280 4510 ft 228 kts 146°
2026-05-05 15:02 51.87073 -0.71957 4283 ft 226 kts 146°
2026-05-05 15:02 51.85846 -0.70377 4046 ft 221 kts 130°
2026-05-05 15:02 51.84860 -0.68534 3830 ft 218 kts 127°
2026-05-05 15:02 51.83929 -0.66659 3669 ft 213 kts 124°
2026-05-05 15:03 51.83264 -0.64591 3522 ft 205 kts 103°
2026-05-05 15:03 51.83104 -0.62328 3371 ft 198 kts 83°
2026-05-05 15:03 51.83386 -0.60229 3276 ft 192 kts 73°
2026-05-05 15:03 51.83749 -0.58164 3093 ft 189 kts 72°
2026-05-05 15:04 51.84101 -0.56158 2843 ft 182 kts 72°
2026-05-05 15:04 51.84324 -0.54880 2673 ft 173 kts 71°
2026-05-05 15:04 51.84642 -0.53061 2450 ft 161 kts 71°
2026-05-05 15:04 51.84938 -0.51366 2256 ft 150 kts 71°
2026-05-05 15:05 51.85471 -0.48321 1835 ft 136 kts 71°
2026-05-05 15:05 51.85729 -0.46834 1636 ft 136 kts 71°
2026-05-05 15:05 51.85984 -0.45364 1385 ft 136 kts 73°
2026-05-05 15:06 51.86243 -0.43852 1199 ft 137 kts 71°
2026-05-05 15:06 51.86496 -0.42384 1042 ft 138 kts 70°
2026-05-05 15:06 51.86771 -0.40818 904 ft 138 kts 69°
2026-05-05 15:06 51.87031 -0.39326 678 ft 136 kts 71°
2026-05-05 15:07 51.87297 -0.37781 532 ft 131 kts 71°
2026-05-05 15:07 51.87512 -0.36570 526 ft 88 kts 74°
2026-05-05 15:07 51.87608 -0.36005 516 ft 20 kts 74°
2026-05-05 15:07 51.87697 -0.35931 516 ft 16 kts 345°
2026-05-05 15:08 51.87779 -0.36022 517 ft 15 kts 291°
2026-05-05 15:08 51.87768 -0.36173 518 ft 13 kts 253°
2026-05-05 15:08 51.87744 -0.36311 518 ft 12 kts 254°
2026-05-05 15:08 51.87723 -0.36429 519 ft 10 kts 254°
2026-05-05 15:09 51.87707 -0.36522 520 ft 9 kts 254°
2026-05-05 15:09 51.87682 -0.36673 522 ft 19 kts 255°
2026-05-05 15:09 51.87643 -0.36896 526 ft 22 kts 254°
2026-05-05 15:09 51.87593 -0.37183 522 ft 29 kts 254°
2026-05-05 15:10 51.87605 -0.37430 523 ft 22 kts 317°
2026-05-05 15:10 51.87712 -0.37613 519 ft 24 kts 295°
2026-05-05 15:10 51.87761 -0.37781 523 ft 10 kts 295°
2026-05-05 15:10 51.87810 -0.37792 523 ft 9 kts 24°
2026-05-05 15:11 51.87824 -0.37781 523 ft 0 kts 26°